Tracking 30106 objects as of 23-Jan-2025
HD Live streaming from Space Station
objects crossing your sky now

STARLINK-5420

Track STARLINK-5420 now!
10-day predictions
STARLINK-5420 is classified as:


NORAD ID: 54798
Int'l Code: 2022-175AS
Perigee: 545.9 km
Apogee: 547.9 km
Inclination: 53.2 °
Period: 95.4 minutes
Semi major axis: 6917 km
RCS: Unknown
Launch date: December 17, 2022
Source: United States (US)
Launch site: AIR FORCE EASTERN TEST RANGE (AFETR)
Your satellite tracking list
Your tracking list is empty




NASA's NSSDC Master Catalog

Two Line Element Set (TLE):
1 54798U 22175AS  25023.46598326  .00000321  00000-0  38292-4 0  9999
2 54798  53.2172  60.4497 0001390  77.0423 283.0724 15.08831990116188
Source of the keplerian elements: AFSPC